User: anonymous   Login
Location: Unspecified
(0.0000°N, 0.0000°E)
Time: 22:20:13
(UTC+00:00)
Language:

STARLINK-30714 - Orbit

View from above orbital plane
View from above orbital plane
View from above satellite
View from above satellite

Ground track
Ground track

The orbit is defined by the following mean orbital elements,

1 57939U          26144.94772477 +.00000000 +00000-0 -37639-4 0 00003
2 57939  53.1610  30.2713 0001615  81.3627 278.7557 15.30180787    08
Epoch (UTC): 24 May 2026 22:44:43
Eccentricity: 0.0001615
inclination: 53.1610°
perigee height: 474 km
apogee height: 476 km
right ascension of ascending node: 30.2713°
argument of perigee: 81.3627°
revolutions per day: 15.30180787
mean anomaly at epoch: 278.7557°

The dashed part of the orbit path shows where the satellite is in the earth's shadow,  

DLR